Location: Mohawk View
(42.7837°N, 73.7885°W)
Time: 12:30:20
(UTC+00:00)

Cosmos 1437 Rocket - Pass Details

Date: 17 June 2021
Orbit: 500 x 567 km, 81.2° (Epoch: 26 July)

Event Time Altitude Azimuth Distance (km) Brightness Sun altitude
Rises 06:30:01 0° 349° (N) 2,683 7.3 -20.4°
Reaches altitude 10° 06:32:11 10° 349° (N) 1,777 6.2 -20.2°
Maximum altitude 06:36:06 85° 261° (W) 526 2.6 -19.9°
Enters shadow 06:36:44 60° 180° (S) 594 2.6 -19.9°
